This demonstration page uses our WeatherBlox Daily Observations layout. Learn more.

Left ArrowRight Arrow

39.92423, -83.80882

Hourly Observations for December 1, 2015

Temp ( °F °C ) Dew Point ( °F °C ) Humidity (%) Winds ( mph kmh ) Pressure ( in mb ) Visibility ( mi km ) Precip ( " mm )
12:17 am 00:17 Cloudy with Mist and Fog 43 6 43 6 100 100 E 9 15 30 1016 0.75 1.207005 0 0
12:42 am 00:42 Cloudy with Fog 43 6 43 6 100 100 ESE 6 9 30 1016 0.5 0.80467 0 0
12:56 am 00:56 Cloudy with Fog 43 6.1 43 6.1 100 100 ESE 9 15 29.98 1015 0.5 0.80467 0 0
1:56 am 01:56 Cloudy with Fog 44 6.6 44 6.6 100 100 ESE 9 15 29.96 1015 0.5 0.80467 0 0
2:29 am 02:29 Cloudy with Mist and Fog 45 7 45 7 100 100 ESE 8 13 29.97 1015 0.75 1.207005 0 0
2:37 am 02:37 Cloudy with Mist and Fog 45 7 45 7 100 100 SE 8 13 29.97 1015 1.25 2.011675 0 0
2:42 am 02:42 Cloudy with Mist and Fog 45 7 45 7 100 100 SE 9 15 29.97 1015 2 3.21868 0 0
2:56 am 02:56 Cloudy with Mist and Fog 45 7.2 45 7.2 100 100 ESE 12 19 29.92 1013 4 6.43736 0 0
3:24 am 03:24 Cloudy with Mist and Fog 45 7 45 7 100 100 ESE 9 15 29.94 1014 2 3.21868 0 0
3:56 am 03:56 Cloudy with Mist and Fog 45 7.2 45 7.2 100 100 SE 8 13 29.91 1013 1.5 2.41401 0 0
4:13 am 04:13 Cloudy with Mist and Fog 46 8 46 8 100 100 SE 6 9 29.94 1014 1 1.60934 0 0
4:34 am 04:34 Cloudy with Mist and Fog 46 8 46 8 100 100 SE 7 11 29.94 1014 1.25 2.011675 0 0
4:46 am 04:46 Cloudy with Mist and Fog 46 8 46 8 100 100 SE 10 17 29.91 1013 1.75 2.816345 0 0
4:56 am 04:56 Cloudy with Mist and Fog 46 7.7 46 7.7 100 100 SE 6 9 29.9 1013 1.75 2.816345 0 0
5:03 am 05:03 Cloudy with Mist and Fog 46 8 46 8 100 100 SE 8 13 29.91 1013 2.5 4.02335 0 0
5:27 am 05:27 Cloudy with Mist and Fog 46 8 46 8 100 100 S 6 9 29.91 1013 1.75 2.816345 0 0
5:39 am 05:39 Cloudy with Mist and Fog 48 9 48 9 100 100 SE 5 7 29.88 1012 1 1.60934 0 0
5:56 am 05:56 Cloudy with Mist and Fog 48 8.8 48 8.8 100 100 E 6 9 29.87 1012 0.75 1.207005 0 0
6:13 am 06:13 Cloudy with Mist and Fog 48 9 48 9 100 100 SE 3 6 29.88 1012 1.25 2.011675 0 0
6:34 am 06:34 Cloudy with Mist and Fog 48 9 48 9 100 100 ESE 5 7 29.88 1012 1.5 2.41401 0 0
6:56 am 06:56 Cloudy with Mist and Fog 49 9.4 49 9.4 100 100 ESE 5 7 29.9 1012 2 3.21868 0 0.0254
7:05 am 07:05 Cloudy with Mist and Fog 48 9 48 9 100 100 ESE 6 9 29.88 1012 1.25 2.011675 0 0.0254
7:16 am 07:16 Cloudy with Mist and Fog 48 9 48 9 100 100 ESE 5 7 29.88 1012 1 1.60934 0 0.0254
7:28 am 07:28 Cloudy with Mist and Fog 48 9 48 9 100 100 ESE 6 9 29.88 1012 1.5 2.41401 0 0.0254
7:37 am 07:37 Cloudy with Mist and Fog 48 9 48 9 100 100 SE 5 7 29.88 1012 2.5 4.02335 0 0.0254
7:56 am 07:56 Cloudy with Mist and Fog 50 10 50 10 100 100 Calm 29.89 1012 3 4.82802 0 0.0254
8:12 am 08:12 Cloudy with Mist and Fog 50 10 50 10 100 100 Calm 29.88 1012 1.75 2.816345 0 0
8:22 am 08:22 Cloudy with Mist and Fog 50 10 50 10 100 100 Calm 29.88 1012 1.25 2.011675 0 0
8:27 am 08:27 Cloudy with Mist and Fog 50 10 50 10 100 100 Calm 29.88 1012 0.75 1.207005 0 0
8:35 am 08:35 Cloudy with Fog 52 11 52 11 100 100 SSE 3 6 29.88 1012 0.25 0.402335 0 0
8:56 am 08:56 Cloudy with Fog 51 10.5 51 10.5 100 100 SSE 5 7 29.9 1012 0.25 0.402335 0 0
9:10 am 09:10 Cloudy with Light Rain 52 11 52 11 100 100 Calm 29.88 1012 0.5 0.80467 0.01 0.254
9:22 am 09:22 Cloudy with Mist and Fog 52 11 52 11 100 100 S 3 6 29.88 1012 1 1.60934 0.02 0.508
9:26 am 09:26 Cloudy with Mist and Fog 54 12 54 12 100 100 S 3 6 29.88 1012 1.5 2.41401 0.02 0.508
9:33 am 09:33 Cloudy with Mist and Fog 54 12 54 12 100 100 S 5 7 29.88 1012 2 3.21868 0.02 0.508
9:42 am 09:42 Cloudy with Mist and Fog 54 12 54 12 100 100 SSW 7 11 29.88 1012 1.5 2.41401 0.02 0.508
9:56 am 09:56 Cloudy with Mist and Fog 54 12.2 54 12.2 100 100 SSW 7 11 29.89 1012 1.25 2.011675 0.02 0.508
10:08 am 10:08 Cloudy with Mist and Fog 54 12 54 12 100 100 WSW 8 13 29.88 1012 1.75 2.816345 0 0
10:20 am 10:20 Cloudy with Mist and Fog 54 12 54 12 100 100 WSW 9 15 29.88 1012 2.5 4.02335 0 0
10:32 am 10:32 Cloudy with Mist and Fog 54 12 54 12 100 100 W 9 15 29.88 1012 1.5 2.41401 0 0
10:39 am 10:39 Cloudy with Mist and Fog 54 12 54 12 100 100 W 9 15 29.88 1012 1.75 2.816345 0 0
10:46 am 10:46 Cloudy with Mist and Fog 54 12 54 12 100 100 W 8 13 29.88 1012 2.5 4.02335 0 0
10:56 am 10:56 Cloudy with Mist and Fog 53 11.6 53 11.6 100 100 W 9 15 29.89 1012 1.25 2.011675 0 0
11:05 am 11:05 Cloudy with Mist and Fog 54 12 54 12 100 100 W 9 15 29.88 1012 1.75 2.816345 0 0
11:17 am 11:17 Cloudy with Mist and Fog 52 11 52 11 100 100 WSW 9 15 29.88 1012 1.25 2.011675 0 0
11:25 am 11:25 Cloudy with Mist and Fog 52 11 52 11 100 100 WSW 9 15 29.88 1012 1 1.60934 0 0
11:56 am 11:56 Cloudy with Mist and Fog 52 11.1 52 11.1 100 100 WSW 13 20 29.88 1012 1.5 2.41401 0.01 0.254
12:01 pm 12:01 Cloudy with Mist and Fog 52 11 52 11 100 100 WSW 10 17 29.88 1012 2 3.21868 0 0
12:30 pm 12:30 Cloudy with Mist and Fog 52 11 52 11 100 100 W 10 17 29.88 1012 1.5 2.41401 0 0
12:39 pm 12:39 Cloudy with Mist and Fog 52 11 52 11 100 100 WSW 12 19 29.88 1012 1.75 2.816345 0 0
12:48 pm 12:48 Cloudy with Mist and Fog 52 11 52 11 100 100 WSW 12 19 29.88 1012 2 3.21868 0 0
12:56 pm 12:56 Cloudy with Mist and Fog 52 11.1 52 11.1 100 100 WSW 10 17 29.88 1012 2 3.21868 0 0
1:03 pm 13:03 Cloudy with Mist and Fog 52 11 52 11 100 100 WSW 12 19 29.85 1011 2 3.21868 0 0
1:21 pm 13:21 Cloudy with Mist and Fog 52 11 52 11 100 100 WSW 12 19 29.85 1011 1.75 2.816345 0 0
1:32 pm 13:32 Cloudy with Mist and Fog 52 11 52 11 100 100 WSW 13 20 29.85 1011 1.25 2.011675 0 0
1:39 pm 13:39 Cloudy with Mist and Fog 52 11 52 11 100 100 WSW 14 22 29.85 1011 1.5 2.41401 0 0
1:44 pm 13:44 Cloudy with Mist and Fog 52 11 52 11 100 100 WSW 13 20 29.85 1011 2 3.21868 0 0
1:56 pm 13:56 Cloudy with Mist and Fog 51 10.5 51 10.5 100 100 W 12 19 29.87 1011 2 3.21868 0 0
2:05 pm 14:05 Cloudy with Mist and Fog 52 11 52 11 100 100 WSW 13 20 29.85 1011 1.75 2.816345 0 0
2:17 pm 14:17 Cloudy with Mist and Fog 50 10 50 10 100 100 W 10 17 29.88 1012 2.5 4.02335 0 0
2:22 pm 14:22 Cloudy with Mist and Fog 50 10 50 10 100 100 W 14 22 29.85 1011 6 9.65604 0 0
2:35 pm 14:35 Cloudy 50 10 50 10 100 100 W 13 20 29.88 1012 10 16.0934 0 0
2:46 pm 14:46 Cloudy 50 10 48 9 94 94 W 10 17 29.88 1012 10 16.0934 0 0
2:56 pm 14:56 Cloudy 50 10 49 9.4 96 96 W 9 15 29.88 1012 10 16.0934 0 0
3:56 pm 15:56 Partly Cloudy 51 10.5 49 9.4 93 93 WSW 8 13 29.89 1012 10 16.0934 0 0
4:56 pm 16:56 Sunny 48 8.8 45 7.2 90 90 WSW 8 13 29.91 1013 10 16.0934 0 0
5:56 pm 17:56 Mostly Cloudy 48 8.8 44 6.6 86 86 W 7 11 29.92 1013 10 16.0934 0 0
6:56 pm 18:56 Cloudy with Mist and Fog 43 6.1 42 5.5 96 96 E 8 13 30.07 1018 3 4.82802 0 0
7:56 pm 19:56 Clear 42 5.5 40 4.4 93 93 W 7 11 29.95 1014 10 16.0934 0 0
8:56 pm 20:56 Clear 42 5.5 40 4.4 93 93 WSW 5 7 29.95 1014 10 16.0934 0 0
9:56 pm 21:56 Clear 39 3.8 38 3.3 97 97 WSW 6 9 29.96 1014 10 16.0934 0 0
10:56 pm 22:56 Clear 40 4.4 39 3.8 96 96 WSW 3 6 29.96 1014 10 16.0934 0 0
11:56 pm 23:56 Clear 39 3.8 38 3.3 97 97 Calm 29.94 1014 10 16.0934 0 0

Powered by AerisWeather